Weather History for New Iberia, LA

Change the Weather History Date:

Monday, September 9, 2013

  Actual Average Record
Temperature  
Mean Temperature 82 °F 80 °F  
Max Temperature 93 °F 90 °F 97 °F (1954)
Min Temperature 71 °F 71 °F 55 °F (2011)
Degree Days  
Heating Degree Days 0 0  
Month to date heating degree days 0 0  
Since 1 July heating degree days 0 0  
Cooling Degree Days 17 15  
Month to date cooling degree days 185 146  
Year to date cooling degree days 2505 2289  
Growing Degree Days 32 (Base 50)    
Moisture  
Dew Point 72 °F    
Average Humidity 71    
Maximum Humidity 93    
Minimum Humidity 49    
Precipitation  
Precipitation 0.00 in 0.16 in 1.31 in (2000)
Month to date precipitation 1.18 1.40  
Year to date precipitation 54.25 42.25  
Sea Level Pressure  
Sea Level Pressure 30.01 in    
Wind  
Wind Speed 5 mph (ESE)    
Max Wind Speed 15 mph    
Max Gust Speed 23 mph    
Visibility 10 miles    
Events      
T = Trace of Precipitation, MM = Missing Value Source: NWS Daily Summary

Daily Weather History Graph

Daily Weather History Graph

Search for Another Location

Airport:

Trip Planner

Search our weather history database for the weather conditions in past years. The results will help you decide how hot, cold, wet, or windy it might be!

Date:

Astronomy

Sep. 09, 2013 Rise Set
Actual Time 6:49 AM CDT 7:19 PM CDT
Civil Twilight 6:24 AM CDT 7:44 PM CDT
Nautical Twilight 5:56 AM CDT 8:12 PM CDT
Astronomical Twilight 5:27 AM CDT 8:40 PM CDT
Moon 10:48 AM CDT (9/9) 10:00 PM CDT (9/9)
Length of Visible Light 13h 19m
Length of Day
12h 30m
Waxing Crescent, 19% of the Moon is Illuminated
Sep 9
Waxing Crescent
Sep 12
First Quarter
Sep 19
Full
Sep 26
Last Quarter
Oct 4
New

Hourly Weather History & Observations

Time (CDT) Temp. Heat Index Dew Point Humidity Pressure Visibility Wind Dir Wind Speed Gust Speed Precip Events Conditions
12:53 AM 75.0 °F - 71.1 °F 87% 29.97 in 10.0 mi Calm Calm - N/A   Clear
1:53 AM 73.9 °F - 71.1 °F 91% 29.96 in 9.0 mi Calm Calm - N/A   Clear
2:53 AM 73.9 °F - 71.1 °F 91% 29.96 in 8.0 mi Calm Calm - N/A   Clear
3:53 AM 73.9 °F - 71.1 °F 91% 29.96 in 8.0 mi Calm Calm - N/A   Clear
4:53 AM 73.9 °F - 70.0 °F 87% 29.97 in 7.0 mi Calm Calm - N/A   Clear
5:53 AM 73.9 °F - 71.1 °F 91% 29.99 in 9.0 mi Calm Calm - N/A   Clear
6:53 AM 72.0 °F - 69.1 °F 91% 30.00 in 9.0 mi ENE 3.5 mph - N/A   Clear
7:53 AM 77.0 °F - 72.0 °F 84% 30.01 in 10.0 mi ENE 3.5 mph - 0.01 in   Clear
8:53 AM 80.1 °F 84.2 °F 73.0 °F 79% 30.04 in 10.0 mi ENE 5.8 mph - N/A   Clear
9:22 AM 80.6 °F 85.4 °F 73.4 °F 79% 30.04 in 8.0 mi East 5.8 mph - N/A   Mostly Cloudy
9:31 AM 82.4 °F 89.5 °F 75.2 °F 79% 30.04 in 9.0 mi East 5.8 mph - N/A   Scattered Clouds
9:53 AM 84.0 °F 91.2 °F 73.9 °F 72% 30.05 in 10.0 mi East 6.9 mph - N/A   Partly Cloudy
10:53 AM 86.0 °F 93.8 °F 73.9 °F 67% 30.05 in 10.0 mi East 8.1 mph - N/A   Partly Cloudy
11:53 AM 89.1 °F 95.0 °F 71.1 °F 55% 30.05 in 10.0 mi SE 10.4 mph - N/A   Scattered Clouds
12:53 PM 89.1 °F 95.0 °F 71.1 °F 55% 30.04 in 10.0 mi ESE 11.5 mph - N/A   Scattered Clouds
1:53 PM 91.9 °F 97.4 °F 70.0 °F 48% 30.02 in 10.0 mi East 10.4 mph - N/A   Partly Cloudy
2:53 PM 91.9 °F 96.9 °F 69.1 °F 47% 30.01 in 10.0 mi ESE 10.4 mph - N/A   Clear
3:53 PM 91.9 °F 97.4 °F 70.0 °F 48% 29.99 in 10.0 mi ESE 8.1 mph - N/A   Clear
4:53 PM 91.9 °F 96.9 °F 69.1 °F 47% 29.99 in 10.0 mi ESE 9.2 mph - N/A   Partly Cloudy
5:53 PM 91.0 °F 95.6 °F 69.1 °F 48% 29.98 in 10.0 mi SE 6.9 mph - N/A   Clear
6:53 PM 86.0 °F 93.0 °F 73.0 °F 65% 29.99 in 10.0 mi South 4.6 mph - N/A   Clear
7:53 PM 82.9 °F 89.4 °F 73.9 °F 74% 30.00 in 10.0 mi Calm Calm - N/A   Scattered Clouds
8:53 PM 82.0 °F 87.9 °F 73.9 °F 76% 30.01 in 10.0 mi Calm Calm - N/A   Partly Cloudy
9:53 PM 80.1 °F 84.5 °F 73.9 °F 81% 30.02 in 10.0 mi Calm Calm - N/A   Clear
10:53 PM 79.0 °F - 73.0 °F 82% 30.02 in 10.0 mi ESE 4.6 mph - N/A   Clear
11:53 PM 77.0 °F - 72.0 °F 84% 30.01 in 9.0 mi Calm Calm - N/A   Clear